Regional Weather Roundup
Issued by NWS Jackson, KY

Home | Current Version | Previous Version | Graphics & Text | Print | Product List | Glossary On
Versions: 1 2 3 4 5 6 7 8 9 10 11 12 13 14 15 16 17 18 19 20 21 22 23 24 25 26 27 28
000
ASUS43 KJKL 212310
RWRJKL

EAST KENTUCKY HOURLY WEATHER ROUNDUP
NATIONAL WEATHER SERVICE JACKSON KY
700 PM EDT SAT OCT 21 2017

NOTE: "FAIR" INDICATES FEW OR NO CLOUDS BELOW 12,000 FEET WITH
NO SIGNIFICANT WEATHER AND/OR OBSTRUCTIONS TO VISIBILITY.

* THESE REPORTS ARE NOT UNDER NWS QUALITY CONTROL AND MAY NOT
  REPORT WEATHER SUCH AS PRECIPITATION AND FOG.

KYZ079-080-083-085-087-088-110-112-115-119-120-220000
...EASTERN KENTUCKY...

CITY           SKY/WX    TMP DP  RH WIND       PRES   REMARKS
JACKSON        CLOUDY    69  50  50 CALM      30.25F
LONDON         CLEAR     64  49  57 CALM      30.24S
SOMERSET*      PTCLDY    64  46  52 CALM      30.24S
MONTICELLO*    PTCLDY    62  50  64 VRB3      30.25R
WILLIAMSBURG*  CLEAR     66  48  52 SE6       30.24S
MIDDLESBORO*   CLEAR     63  53  69 CALM      30.26S
HARLAN APT*    CLEAR     66  46  48 CALM      30.27S
PIKE CO APT*     N/A     67  49  52 NE6       30.27S
BIG SANDY APT* PTCLDY    67  53  59 E3        30.27S
MOREHEAD APT*  PTCLDY    68  52  56 E5        30.25F
$$

KYZ035-036-041-042-044-050-067-078-099-220000
...CENTRAL KENTUCKY...

CITY           SKY/WX    TMP DP  RH WIND       PRES   REMARKS
MT STERLING*   PTCLDY    68  46  45 SW3       30.25R
FLEMING/MASON* CLEAR     66  48  52 SE5       30.24S
DANVILLE*      PTCLDY    63  50  63 CALM      30.23S
LEXINGTON      PTCLDY    68  48  48 SE7       30.22S
FRANKFORT      MOCLDY    69  46  43 SE5       30.19F
LOUISVILLE     MOCLDY    72  48  42 SE7       30.17S
LEBANON*         N/A     70  46  43 SE6       30.20F
GLASGOW*       CLEAR     68  52  56 CALM      30.18S
BOWLING GREEN  CLEAR     68  57  68 SE5       30.17S
$$

KYZ091>093-OHZ055-061-077-WVZ005-015-034-035-042-220000
...SOUTHERN OHIO/WEST VIRGINIA...

CITY           SKY/WX    TMP DP  RH WIND       PRES   REMARKS
COVINGTON      MOCLDY    66  52  60 SE3       30.20S
COLUMBUS       CLOUDY    70  52  52 S6        30.22R
DAYTON         MOCLDY    64  47  53 S8        30.22R
WILMINGTON     CLOUDY    64  52  64 SE3       30.23R
HUNTINGTON     PTCLDY    71  51  49 SE5       30.25R
CHARLESTON     PTCLDY    69  52  54 CALM      30.26F
PINEVILLE*     PTCLDY    61  50  66 MISG      30.34S
BECKLEY        CLEAR     66  46  48 SE6       30.34R
BLUEFIELD      PTCLDY    66  43  43 SE5       30.36R
LOGAN CO APT*    N/A     72  46  40 CALM      30.28S
$$

VAZ002-007-008-TNZ017-027-036-066-071-220000
...SOUTHWEST VIRGINIA/EAST TENNESSEE...

CITY           SKY/WX    TMP DP  RH WIND       PRES   REMARKS
WISE*          CLEAR     68  41  37 CALM      30.34S
JONESVILLE*      N/A     64  50  59 CALM      30.29S
ABINGDON*      CLEAR     67  48  49 CALM      30.31S
BRISTOL        CLOUDY    67  52  58 CALM      30.28R
MORRISTOWN*    CLEAR     70  50  49 CALM      30.26S
SEVIERVILLE*   CLEAR     68  55  64 CALM      30.25S
KNOXVILLE      CLOUDY    71  54  54 NE3       30.24S
LAFOLLETTE*    CLEAR     63  54  72 CALM      30.29S
CROSSVILLE     CLEAR     62  50  64 SE3       30.27R
NASHVILLE      MOCLDY    73  56  54 SE7       30.17S
$$

...KEY TO REMARKS...
VSB - VISIBILITY IN MILES
WCI - WIND CHILL INDEX
HX  - HEAT INDEX

$$




USA.gov is the U.S. government's official web portal to all federal, state and local government web resources and services.